Retour au catalogue

STARLINK-32018

ActifCommunicationsVLEO
NORAD 60105·PAYLOAD·🇺🇸 United States

Lancé Jun 23, 2024 depuis Cape Canaveral Space Force Station

Loading…

Prochains Passages (prochaines 24 heures)

TLE

FraisSource: CelesTrak SupGP

Époque: Sep 14, 2026, 22:13 UTC

1 60105C 24117Q   26257.92618056  .00030684  00000+0  90639-3 0  2573
2 60105  53.1571 235.5500 0001450  96.5035 346.4377 15.34380841    16

Suivez STARLINK-32018 en temps réel avec AllMySat

Download on the App Store